Time,TemperatureF,DewpointF,PressureIn,WindDirection,WindDirectionDegrees,WindSpeedMPH,WindSpeedGustMPH,Humidity,HourlyPrecipIn,Conditions,Clouds,dailyrainin,SoftwareType,DateUTC
2013-05-29 00:14:00,73.2,58.0,29.86,SE,135,0.0,-999.0,59,-99.99,,,0.00,Acu-Link.com,2013-05-29 04:14:00,
2013-05-29 00:29:00,72.9,58.2,29.86,SSW,202,3.2,-999.0,60,-99.99,,,0.00,Acu-Link.com,2013-05-29 04:29:00,
2013-05-29 00:44:00,72.1,57.9,29.86,SSW,202,1.1,-999.0,61,-99.99,,,0.00,Acu-Link.com,2013-05-29 04:44:00,
2013-05-29 01:00:00,71.1,58.7,29.87,South,180,1.1,-999.0,65,-99.99,,,0.00,Acu-Link.com,2013-05-29 05:00:00,
2013-05-29 01:15:00,70.5,59.4,29.87,South,180,0.0,-999.0,68,-99.99,,,0.00,Acu-Link.com,2013-05-29 05:15:00,
2013-05-29 01:30:00,68.4,59.8,29.87,ESE,112,1.7,-999.0,74,-99.99,,,0.00,Acu-Link.com,2013-05-29 05:30:00,
2013-05-29 01:46:00,67.3,60.2,29.87,ESE,112,0.0,-999.0,78,-99.99,,,0.00,Acu-Link.com,2013-05-29 05:46:00,
2013-05-29 02:01:00,66.0,61.0,29.87,NNE,22,0.0,-999.0,84,-99.99,,,0.00,Acu-Link.com,2013-05-29 06:01:00,
2013-05-29 02:16:00,64.8,61.2,29.88,NE,45,0.0,-999.0,88,-99.99,,,0.00,Acu-Link.com,2013-05-29 06:16:00,
2013-05-29 02:31:00,63.7,63.1,29.90,NE,45,0.0,-999.0,98,-99.99,,,0.00,Acu-Link.com,2013-05-29 06:31:00,
2013-05-29 02:47:00,63.0,62.4,29.90,NE,45,0.0,-999.0,98,-99.99,,,0.00,Acu-Link.com,2013-05-29 06:47:00,
2013-05-29 03:02:00,62.1,61.5,29.90,NE,45,0.0,-999.0,98,-99.99,,,0.00,Acu-Link.com,2013-05-29 07:02:00,
2013-05-29 03:17:00,61.9,61.3,29.91,NE,45,0.0,-999.0,98,-99.99,,,0.00,Acu-Link.com,2013-05-29 07:17:00,
2013-05-29 03:48:00,61.2,60.6,29.91,NE,45,0.0,-999.0,98,-99.99,,,0.00,Acu-Link.com,2013-05-29 07:48:00,
2013-05-29 04:03:00,60.8,60.2,29.92,NE,45,0.0,-999.0,98,-99.99,,,0.00,Acu-Link.com,2013-05-29 08:03:00,
2013-05-29 04:19:00,60.8,60.2,29.92,NE,45,0.0,-999.0,98,-99.99,,,0.00,Acu-Link.com,2013-05-29 08:19:00,
2013-05-29 04:34:00,60.6,60.0,29.92,WNW,292,0.0,-999.0,98,-99.99,,,0.00,Acu-Link.com,2013-05-29 08:34:00,
2013-05-29 04:50:00,60.3,59.7,29.93,SE,135,0.0,-999.0,98,-99.99,,,0.00,Acu-Link.com,2013-05-29 08:50:00,
2013-05-29 05:05:00,60.1,59.5,29.92,SE,135,0.0,-999.0,98,-99.99,,,0.00,Acu-Link.com,2013-05-29 09:05:00,
2013-05-29 05:20:00,59.7,59.1,29.93,SE,135,0.0,-999.0,98,-99.99,,,0.00,Acu-Link.com,2013-05-29 09:20:00,
2013-05-29 05:35:00,59.4,58.8,29.92,SE,135,0.0,-999.0,98,-99.99,,,0.00,Acu-Link.com,2013-05-29 09:35:00,
2013-05-29 05:50:00,59.0,58.4,29.93,SE,135,0.0,-999.0,98,-99.99,,,0.00,Acu-Link.com,2013-05-29 09:50:00,
2013-05-29 06:05:00,59.2,58.6,29.94,ENE,67,0.0,-999.0,98,-99.99,,,0.00,Acu-Link.com,2013-05-29 10:05:00,
2013-05-29 06:21:00,58.8,58.2,29.94,ENE,67,0.0,-999.0,98,-99.99,,,0.00,Acu-Link.com,2013-05-29 10:21:00,
2013-05-29 06:36:00,58.8,58.2,29.94,ENE,67,0.0,-999.0,98,-99.99,,,0.00,Acu-Link.com,2013-05-29 10:36:00,
2013-05-29 06:52:00,58.8,58.2,29.94,ENE,67,0.0,-999.0,98,-99.99,,,0.00,Acu-Link.com,2013-05-29 10:52:00,
2013-05-29 07:07:00,59.2,58.6,29.96,ENE,67,0.0,-999.0,98,-99.99,,,0.00,Acu-Link.com,2013-05-29 11:07:00,
2013-05-29 07:22:00,60.3,59.7,29.96,ENE,67,0.0,-999.0,98,-99.99,,,0.00,Acu-Link.com,2013-05-29 11:22:00,
2013-05-29 07:37:00,61.0,60.4,29.96,ENE,67,0.0,-999.0,98,-99.99,,,0.00,Acu-Link.com,2013-05-29 11:37:00,
2013-05-29 07:53:00,62.6,62.0,29.96,ENE,67,0.0,-999.0,98,-99.99,,,0.00,Acu-Link.com,2013-05-29 11:53:00,
2013-05-29 08:08:00,64.8,64.2,29.97,ESE,112,1.1,-999.0,98,-99.99,,,0.00,Acu-Link.com,2013-05-29 12:08:00,
2013-05-29 08:23:00,66.4,65.8,29.97,ENE,67,0.0,-999.0,98,-99.99,,,0.00,Acu-Link.com,2013-05-29 12:23:00,
2013-05-29 08:38:00,68.0,67.4,29.97,ESE,112,0.0,-999.0,98,-99.99,,,0.00,Acu-Link.com,2013-05-29 12:38:00,
2013-05-29 08:53:00,69.8,69.2,29.98,ESE,112,0.0,-999.0,98,-99.99,,,0.00,Acu-Link.com,2013-05-29 12:53:00,
2013-05-29 09:08:00,70.9,65.8,29.98,North,0,1.7,-999.0,84,-99.99,,,0.00,Acu-Link.com,2013-05-29 13:08:00,
2013-05-29 09:23:00,72.5,67.0,29.98,WNW,292,1.7,-999.0,83,-99.99,,,0.00,Acu-Link.com,2013-05-29 13:23:00,
2013-05-29 09:39:00,73.6,67.8,29.98,North,0,2.2,-999.0,82,-99.99,,,0.00,Acu-Link.com,2013-05-29 13:39:00,
2013-05-29 09:54:00,74.7,68.1,29.99,ESE,112,0.0,-999.0,80,-99.99,,,0.00,Acu-Link.com,2013-05-29 13:54:00,
2013-05-29 10:09:00,75.7,66.8,29.98,ENE,67,1.1,-999.0,74,-99.99,,,0.00,Acu-Link.com,2013-05-29 14:09:00,
2013-05-29 10:25:00,76.1,66.8,29.97,SE,135,3.2,-999.0,73,-99.99,,,0.00,Acu-Link.com,2013-05-29 14:25:00,
2013-05-29 10:40:00,77.4,66.0,29.97,SSE,157,3.7,-999.0,68,-99.99,,,0.00,Acu-Link.com,2013-05-29 14:40:00,
2013-05-29 10:55:00,79.2,68.6,29.98,North,0,4.2,-999.0,70,-99.99,,,0.00,Acu-Link.com,2013-05-29 14:55:00,
2013-05-29 11:10:00,79.7,66.4,29.97,WNW,292,2.2,-999.0,64,-99.99,,,0.00,Acu-Link.com,2013-05-29 15:10:00,
2013-05-29 11:26:00,80.1,66.3,29.99,SSW,202,4.7,-999.0,63,-99.99,,,0.00,Acu-Link.com,2013-05-29 15:26:00,
2013-05-29 11:41:00,79.3,65.6,29.98,SSE,157,3.7,-999.0,63,-99.99,,,0.00,Acu-Link.com,2013-05-29 15:41:00,
2013-05-29 11:56:00,81.1,66.4,29.97,SSW,202,4.7,-999.0,61,-99.99,,,0.00,Acu-Link.com,2013-05-29 15:56:00,
2013-05-29 12:11:00,82.6,66.3,29.98,SSW,202,3.7,-999.0,58,-99.99,,,0.00,Acu-Link.com,2013-05-29 16:11:00,
2013-05-29 12:26:00,83.1,67.3,29.97,SSE,157,2.2,-999.0,59,-99.99,,,0.00,Acu-Link.com,2013-05-29 16:26:00,
2013-05-29 12:42:00,85.3,67.3,29.98,NNE,22,2.7,-999.0,55,-99.99,,,0.00,Acu-Link.com,2013-05-29 16:42:00,
2013-05-29 12:57:00,84.9,66.4,29.97,NNE,22,2.2,-999.0,54,-99.99,,,0.00,Acu-Link.com,2013-05-29 16:57:00,
2013-05-29 13:12:00,86.0,66.8,29.97,WNW,292,2.2,-999.0,53,-99.99,,,0.00,Acu-Link.com,2013-05-29 17:12:00,
2013-05-29 13:27:00,89.2,66.9,29.96,South,180,2.7,-999.0,48,-99.99,,,0.00,Acu-Link.com,2013-05-29 17:27:00,
2013-05-29 13:42:00,93.2,65.9,29.95,WSW,247,2.7,-999.0,41,-99.99,,,0.00,Acu-Link.com,2013-05-29 17:42:00,
2013-05-29 13:58:00,94.1,63.8,29.94,NNE,22,2.2,-999.0,37,-99.99,,,0.00,Acu-Link.com,2013-05-29 17:58:00,
2013-05-29 14:13:00,93.6,63.4,29.94,WNW,292,3.2,-999.0,37,-99.99,,,0.00,Acu-Link.com,2013-05-29 18:13:00,
2013-05-29 14:28:00,96.6,64.4,29.93,NW,315,2.2,-999.0,35,-99.99,,,0.00,Acu-Link.com,2013-05-29 18:28:00,
2013-05-29 14:43:00,93.7,62.7,29.92,North,0,3.2,-999.0,36,-99.99,,,0.00,Acu-Link.com,2013-05-29 18:43:00,
2013-05-29 14:59:00,93.4,66.1,29.91,South,180,2.2,-999.0,41,-99.99,,,0.00,Acu-Link.com,2013-05-29 18:59:00,
2013-05-29 15:14:00,94.8,65.2,29.90,SSE,157,2.7,-999.0,38,-99.99,,,0.00,Acu-Link.com,2013-05-29 19:14:00,
2013-05-29 15:29:00,94.6,63.5,29.89,North,0,1.1,-999.0,36,-99.99,,,0.00,Acu-Link.com,2013-05-29 19:29:00,
2013-05-29 15:44:00,92.7,64.1,29.88,SSE,157,3.2,-999.0,39,-99.99,,,0.00,Acu-Link.com,2013-05-29 19:44:00,
2013-05-29 15:59:00,91.8,62.5,29.88,ESE,112,2.2,-999.0,38,-99.99,,,0.00,Acu-Link.com,2013-05-29 19:59:00,
2013-05-29 16:15:00,93.6,63.4,29.87,SSE,157,2.2,-999.0,37,-99.99,,,0.00,Acu-Link.com,2013-05-29 20:15:00,
2013-05-29 16:30:00,92.5,63.1,29.87,ENE,67,1.1,-999.0,38,-99.99,,,0.00,Acu-Link.com,2013-05-29 20:30:00,
2013-05-29 16:45:00,95.5,65.0,29.87,West,270,1.7,-999.0,37,-99.99,,,0.00,Acu-Link.com,2013-05-29 20:45:00,
2013-05-29 17:00:00,94.6,62.7,29.87,SSE,157,2.7,-999.0,35,-99.99,,,0.00,Acu-Link.com,2013-05-29 21:00:00,
2013-05-29 17:16:00,90.0,63.8,29.87,SSW,202,1.1,-999.0,42,-99.99,,,0.00,Acu-Link.com,2013-05-29 21:16:00,
2013-05-29 17:31:00,90.3,65.4,29.86,NNE,22,2.7,-999.0,44,-99.99,,,0.00,Acu-Link.com,2013-05-29 21:31:00,
2013-05-29 17:46:00,89.4,64.6,29.86,SSW,202,1.7,-999.0,44,-99.99,,,0.00,Acu-Link.com,2013-05-29 21:46:00,
2013-05-29 18:02:00,88.5,65.0,29.86,West,270,1.7,-999.0,46,-99.99,,,0.00,Acu-Link.com,2013-05-29 22:02:00,
2013-05-29 18:17:00,87.8,66.2,29.86,WSW,247,1.7,-999.0,49,-99.99,,,0.00,Acu-Link.com,2013-05-29 22:17:00,
2013-05-29 18:32:00,87.3,65.2,29.86,NE,45,0.0,-999.0,48,-99.99,,,0.00,Acu-Link.com,2013-05-29 22:32:00,
2013-05-29 18:47:00,87.1,65.6,29.86,WNW,292,0.0,-999.0,49,-99.99,,,0.00,Acu-Link.com,2013-05-29 22:47:00,
2013-05-29 19:02:00,86.7,65.8,29.85,NW,315,0.0,-999.0,50,-99.99,,,0.00,Acu-Link.com,2013-05-29 23:02:00,
2013-05-29 19:17:00,86.5,66.2,29.85,WNW,292,0.0,-999.0,51,-99.99,,,0.00,Acu-Link.com,2013-05-29 23:17:00,
2013-05-29 19:33:00,85.5,65.3,29.87,NNE,22,0.0,-999.0,51,-99.99,,,0.00,Acu-Link.com,2013-05-29 23:33:00,
2013-05-29 19:48:00,85.8,66.1,29.86,SSE,157,0.0,-999.0,52,-99.99,,,0.00,Acu-Link.com,2013-05-29 23:48:00,
2013-05-29 20:03:00,85.1,64.9,29.86,SSE,157,0.0,-999.0,51,-99.99,,,0.00,Acu-Link.com,2013-05-30 00:03:00,
2013-05-29 20:19:00,83.8,68.4,29.86,SSE,157,0.0,-999.0,60,-99.99,,,0.00,Acu-Link.com,2013-05-30 00:19:00,
2013-05-29 20:34:00,82.2,70.1,29.87,SSE,157,0.0,-999.0,67,-99.99,,,0.00,Acu-Link.com,2013-05-30 00:34:00,
2013-05-29 20:49:00,81.0,68.5,29.88,West,270,0.0,-999.0,66,-99.99,,,0.00,Acu-Link.com,2013-05-30 00:49:00,
2013-05-29 21:05:00,79.5,69.3,29.87,NW,315,0.0,-999.0,71,-99.99,,,0.00,Acu-Link.com,2013-05-30 01:05:00,
2013-05-29 21:20:00,77.5,70.5,29.88,SSW,202,0.0,-999.0,79,-99.99,,,0.00,Acu-Link.com,2013-05-30 01:20:00,
2013-05-29 21:35:00,75.9,71.4,29.89,West,270,1.7,-999.0,86,-99.99,,,0.00,Acu-Link.com,2013-05-30 01:35:00,
2013-05-29 21:51:00,74.8,69.6,29.89,SSW,202,0.0,-999.0,84,-99.99,,,0.00,Acu-Link.com,2013-05-30 01:51:00,
2013-05-29 22:06:00,74.5,64.5,29.90,SW,225,1.7,-999.0,71,-99.99,,,0.00,Acu-Link.com,2013-05-30 02:06:00,
2013-05-29 22:21:00,73.9,63.5,29.91,South,180,1.1,-999.0,70,-99.99,,,0.00,Acu-Link.com,2013-05-30 02:21:00,
2013-05-29 22:37:00,72.9,64.5,29.91,SSE,157,0.0,-999.0,75,-99.99,,,0.00,Acu-Link.com,2013-05-30 02:37:00,
2013-05-29 22:52:00,72.5,64.5,29.91,South,180,2.2,-999.0,76,-99.99,,,0.00,Acu-Link.com,2013-05-30 02:52:00,
2013-05-29 23:07:00,72.5,63.3,29.91,SSE,157,0.0,-999.0,73,-99.99,,,0.00,Acu-Link.com,2013-05-30 03:07:00,
2013-05-29 23:22:00,72.1,63.0,29.91,South,180,1.1,-999.0,73,-99.99,,,0.00,Acu-Link.com,2013-05-30 03:22:00,
2013-05-29 23:37:00,70.7,63.9,29.91,NNE,22,0.0,-999.0,79,-99.99,,,0.00,Acu-Link.com,2013-05-30 03:37:00,
2013-05-29 23:53:00,69.1,64.1,29.90,South,180,0.0,-999.0,84,-99.99,,,0.00,Acu-Link.com,2013-05-30 03:53:00,